Theta_e
317 317 317 317 317 317 317 318 319 319 318 317 317 318 318 318 317 316 316 316 316 316 315 314 314 313 312 311 311 311 311 311 311 311 311 312 312 311 311 311 311 311 311 310 310 310 309 308 307 307 306 305 305 305 305 305 305 306 306 306 306 305 304 304 303 303 303 303 302 303 303 302 302 301 300 299 298 297 296 295 294 293 292 292 291 291
317 317 317 317 317 317 318 318 319 318 317 317 317 318 318 317 316 316 316 316 316 315 315 314 313 312 311 311 311 310 310 310 310 311 311 311 311 311 311 311 311 310 310 310 309 309 308 308 307 306 305 304 304 304 304 304 304 304 304 304 303 303 303 302 302 302 302 302 302 302 301 301 300 300 299 298 297 296 295 293 292 292 291 291 291 291
316 316 316 316 316 317 318 319 318 318 316 316 317 317 317 316 315 315 315 315 315 315 314 313 312 312 311 310 310 310 310 310 310 310 311 311 311 311 311 311 310 310 309 309 309 308 308 307 306 305 304 304 304 303 303 303 303 303 303 303 302 302 302 301 301 301 301 301 301 301 300 300 299 298 297 297 296 294 293 292 291 291 291 291 291 291
315 315 315 316 316 317 318 318 317 316 316 316 317 317 317 316 315 315 315 315 315 314 314 313 312 311 311 310 310 310 310 309 310 310 310 311 311 311 311 310 310 309 309 308 308 307 307 306 305 304 304 303 303 303 303 303 303 303 302 302 302 302 301 301 301 301 301 301 300 300 299 298 297 297 296 295 294 293 292 291 291 291 291 290 290 290
314 314 315 315 316 317 317 317 316 315 316 317 317 317 316 315 315 315 314 314 314 313 313 312 312 311 310 310 310 310 309 309 309 310 310 310 311 311 310 310 309 309 308 308 307 307 306 305 304 304 303 303 303 303 303 303 302 302 302 301 301 301 301 300 300 300 300 299 299 298 297 296 296 295 294 293 292 292 291 291 291 290 290 290 290 290
314 314 315 315 316 316 316 315 315 315 316 317 317 317 316 315 315 315 315 314 314 313 312 312 311 311 310 310 309 309 309 309 309 310 310 310 310 310 310 309 309 308 307 307 306 306 305 304 304 303 303 303 303 303 302 302 302 301 301 301 300 300 299 299 299 299 298 297 297 296 295 294 294 293 292 292 291 291 291 291 291 290 290 290 290 290
314 314 314 315 315 315 315 315 315 315 316 317 317 316 316 315 315 315 315 315 314 313 312 311 311 311 310 309 309 308 308 309 309 309 310 310 310 310 309 309 308 307 307 306 306 305 304 303 303 303 303 303 303 302 302 301 301 300 299 299 298 298 298 297 297 296 296 295 294 294 293 292 292 291 291 291 291 290 290 290 290 290 290 290 290 290
313 314 314 314 314 314 314 314 314 315 316 316 317 316 316 315 314 314 314 314 313 313 313 312 311 310 309 308 308 308 308 308 309 309 309 309 309 309 309 308 307 306 306 305 305 304 303 303 303 303 302 302 302 301 300 299 299 298 297 296 296 295 295 294 294 294 293 292 292 292 291 291 291 291 290 290 290 290 290 290 290 290 290 290 290 290
312 313 313 314 314 314 314 314 315 315 315 316 316 316 316 315 314 313 313 313 313 313 313 312 310 309 308 307 307 307 307 308 308 308 309 309 309 309 309 308 307 306 305 305 304 303 303 302 302 302 302 301 300 299 298 297 296 295 294 293 293 292 292 292 292 291 291 291 291 290 290 290 290 290 290 290 290 290 290 290 290 290 290 290 290 290
312 312 313 313 313 313 314 314 314 315 315 315 316 315 315 314 313 312 312 312 312 311 312 311 310 309 308 307 306 306 306 307 307 308 308 309 309 309 308 307 306 305 305 304 303 303 302 302 302 301 300 299 297 296 295 294 293 292 291 291 291 291 291 291 291 290 290 290 290 290 290 290 290 290 290 290 290 290 290 290 290 290 290 290 289 289
313 313 313 312 313 313 313 313 314 314 315 315 315 314 314 313 312 312 312 312 311 310 310 310 309 309 308 307 306 306 306 306 307 308 308 308 308 308 307 306 305 304 304 303 303 302 302 301 301 299 298 296 295 293 292 291 291 290 290 290 290 290 290 290 290 290 290 290 290 290 290 290 290 290 290 290 290 290 290 290 290 290 290 289 289 289
312 312 312 312 312 312 312 313 313 313 314 314 314 314 313 312 311 311 312 312 311 310 310 309 309 309 308 307 306 306 306 307 307 308 308 308 308 307 306 305 304 304 303 303 302 302 301 301 299 298 296 294 292 291 290 290 290 290 290 290 290 290 290 290 290 290 290 290 290 290 290 290 290 290 290 290 290 290 290 290 290 290 290 289 289 289
312 312 312 311 311 311 312 312 313 313 313 314 313 313 313 313 312 311 311 311 310 310 310 309 309 308 308 307 307 307 307 307 307 307 307 307 306 306 305 304 304 303 303 302 302 301 301 299 298 296 294 292 291 290 289 289 289 290 290 290 290 290 290 290 290 290 290 290 290 290 290 290 290 290 290 290 290 290 290 290 290 290 289 289 289 289
311 311 311 311 311 311 312 312 313 313 313 313 313 313 312 312 311 311 311 310 310 310 309 309 309 308 307 307 307 307 307 307 307 307 306 306 305 305 304 304 303 303 302 302 301 301 300 298 296 294 292 291 290 289 289 289 289 290 290 290 290 290 290 290 290 290 290 290 290 290 290 290 290 290 290 290 290 290 290 290 290 290 290 289 289 289
311 311 311 311 311 312 312 312 312 313 313 312 312 311 311 311 311 310 310 310 310 310 309 309 309 307 306 306 306 306 306 306 306 306 305 305 305 304 304 303 303 302 302 301 301 300 298 296 295 293 291 290 289 289 289 289 289 290 290 290 290 290 290 290 290 290 290 290 290 290 290 290 290 290 290 290 290 290 290 290 290 290 290 290 290 290
311 311 310 310 311 311 311 311 312 311 311 311 310 310 310 310 310 310 310 310 310 309 309 309 308 307 306 305 305 305 306 306 305 305 304 304 304 304 303 302 302 302 301 301 300 299 297 295 294 292 291 290 289 289 289 289 289 290 290 290 290 290 290 290 290 290 290 290 290 290 290 290 290 290 290 290 290 290 290 290 290 290 290 290 290 290
310 310 310 309 309 310 310 310 310 310 310 310 309 309 309 310 310 309 309 309 309 309 309 309 308 307 306 305 304 305 305 305 305 304 304 304 304 303 303 302 302 301 301 300 299 298 296 294 293 291 290 289 289 289 289 289 289 289 289 289 289 289 289 290 290 290 290 290 290 290 290 290 290 290 290 290 290 290 290 290 290 290 291 291 290 290
309 309 309 309 308 308 309 309 310 310 309 309 309 309 309 309 309 308 308 308 309 309 309 309 309 308 308 306 305 305 305 305 304 304 304 304 303 303 302 302 301 301 300 299 298 297 295 294 292 291 290 289 289 289 289 289 289 289 289 289 289 289 289 289 289 290 290 290 290 290 290 290 290 290 290 290 290 290 290 290 291 291 291 291 291 291
308 308 308 308 308 307 307 308 309 309 309 309 309 309 308 308 307 307 307 307 308 308 308 308 308 308 307 307 307 306 305 305 304 304 304 304 304 303 302 301 301 300 300 299 297 296 294 293 292 291 290 289 289 289 289 289 289 289 289 289 289 289 289 289 289 290 290 290 290 290 290 290 290 290 290 290 290 290 290 291 291 291 291 291 291 291
306 306 306 307 306 306 306 307 308 309 309 309 309 308 307 307 307 307 307 307 307 307 307 307 307 307 306 306 306 307 306 305 304 303 303 303 304 303 302 301 300 299 299 298 297 295 294 292 291 290 289 289 289 289 289 289 289 289 289 289 289 289 289 289 289 290 290 290 290 290 290 290 290 290 291 291 291 291 291 291 291 291 291 291 291 291
305 305 305 306 305 305 305 306 307 308 308 308 308 307 307 306 306 306 306 306 306 306 306 306 306 305 305 305 306 306 305 304 304 303 302 303 303 303 301 300 299 299 298 297 296 294 293 292 291 290 289 289 289 289 288 288 289 289 289 289 289 289 289 289 289 290 290 290 290 290 290 291 291 291 291 291 291 291 291 291 291 291 291 291 291 291
305 304 304 304 304 304 304 304 306 307 308 308 307 307 306 306 306 305 306 306 305 305 305 305 304 304 305 305 306 306 305 304 303 303 302 302 302 302 301 299 298 297 297 296 294 293 292 291 290 289 289 288 288 288 288 288 288 288 289 289 289 289 289 289 290 290 290 290 290 290 291 291 291 291 291 291 291 291 291 291 291 291 291 291 291 291
304 304 304 303 303 303 303 304 305 307 307 307 306 306 306 306 306 305 305 305 305 305 305 305 305 305 305 305 305 305 304 303 302 302 302 301 302 301 300 298 297 296 295 295 293 292 291 290 289 289 288 288 288 288 288 288 288 288 289 289 289 289 289 289 290 290 290 290 290 290 291 291 291 291 291 291 291 291 291 291 291 291 291 291 291 291
304 304 303 303 303 303 304 304 305 306 307 306 305 305 305 305 305 304 304 305 305 305 305 305 305 305 304 305 304 304 304 303 302 301 301 301 301 300 299 297 296 295 294 294 292 291 290 289 289 289 288 288 288 288 288 288 288 288 289 289 289 289 289 289 290 290 290 290 290 291 291 291 291 291 291 291 291 291 291 291 291 291 291 291 291 291
303 303 303 304 304 304 304 304 305 305 306 305 305 305 304 304 304 304 304 304 304 304 305 305 304 304 304 304 304 303 303 302 302 301 301 300 300 299 298 296 295 294 294 293 291 290 289 289 289 288 288 288 288 288 288 288 288 288 289 289 289 289 290 290 290 290 290 290 291 291 291 291 291 291 291 291 291 291 291 291 291 291 291 291 291 291
304 304 303 303 304 304 304 304 304 304 305 305 305 305 305 305 305 304 304 304 304 304 304 304 303 303 304 304 303 303 302 302 301 301 301 300 299 298 297 296 294 294 293 292 291 290 289 289 288 288 288 288 288 288 288 288 288 288 289 289 289 289 290 290 290 290 290 291 291 291 291 291 291 291 291 291 291 291 291 291 291 291 291 291 291 291
303 303 303 303 303 303 303 303 303 304 304 304 305 305 305 305 305 304 304 304 304 304 304 303 303 303 303 303 303 303 302 302 301 301 301 299 298 297 296 295 294 293 292 291 290 289 289 288 288 288 288 288 288 288 288 288 288 288 289 289 289 290 290 290 290 290 290 291 291 291 291 291 291 291 291 291 291 291 291 291 291 291 291 291 291 291
303 303 303 303 303 303 303 303 303 303 304 304 304 304 304 305 305 304 304 305 305 304 304 303 303 303 303 303 303 303 302 302 301 301 300 299 298 296 296 294 293 292 291 290 289 289 288 288 288 288 288 288 288 288 288 288 288 289 289 289 289 290 290 290 290 290 291 291 291 291 291 291 291 291 291 291 291 291 291 291 291 291 291 291 291 291
303 303 303 303 303 303 303 303 303 303 303 304 304 304 304 304 304 304 305 305 305 304 304 303 303 303 304 304 303 303 302 301 301 300 299 298 297 296 295 293 292 291 290 289 289 288 288 288 288 288 288 288 288 288 288 288 288 289 289 289 290 290 290 290 290 290 290 291 291 291 291 291 291 291 291 291 291 291 291 291 291 291 291 291 291 291
303 303 303 303 303 303 303 303 303 303 303 303 303 303 303 304 304 304 304 304 304 304 304 303 303 303 303 303 303 302 301 301 300 299 298 297 296 295 294 293 291 290 289 289 288 288 287 288 288 288 288 288 288 288 288 288 289 289 289 289 290 290 290 290 290 290 290 291 291 291 291 291 291 291 291 291 291 291 291 291 291 291 291 291 291 291
303 303 302 302 302 302 302 302 302 302 302 302 303 303 303 303 303 304 304 304 303 303 303 303 303 303 303 302 302 301 300 300 299 298 297 296 295 294 293 292 290 290 289 288 288 287 287 287 288 288 288 288 288 288 288 289 289 289 289 289 290 290 290 290 290 290 290 290 291 291 291 291 291 291 291 291 291 291 291 291 291 291 291 291 291 291
302 302 302 302 302 302 302 302 302 302 302 302 302 302 302 302 303 303 303 303 302 302 302 302 302 302 301 301 300 299 299 298 297 296 296 295 294 293 292 291 290 289 288 288 287 287 287 287 288 288 288 288 288 288 288 289 289 289 289 290 290 290 290 290 290 290 290 290 291 291 291 291 291 291 291 291 291 291 291 291 291 291 291 291 291 291
302 302 301 301 301 301 301 301 301 301 301 301 301 301 301 301 301 301 302 302 301 301 301 300 300 299 299 298 297 297 296 296 296 295 294 294 293 292 291 290 289 288 288 287 287 287 287 288 288 288 288 288 288 288 288 289 289 289 289 290 290 290 290 290 290 290 290 290 290 291 291 291 291 291 291 291 291 291 291 291 291 291 291 291 291 291
301 301 301 300 300 300 300 299 299 299 299 299 299 299 299 299 300 300 300 300 300 300 300 299 298 297 296 296 295 295 294 294 294 293 293 292 292 291 290 289 289 288 288 287 287 287 287 288 289 288 288 288 288 288 288 288 289 289 289 289 290 290 290 290 290 290 290 290 290 290 290 290 291 291 291 291 291 291 291 291 291 291 291 291 291 291
301 300 300 300 299 298 298 297 297 297 297 297 296 297 297 297 297 298 298 298 298 298 297 297 296 295 295 294 293 293 292 292 292 292 292 291 291 290 289 289 288 288 288 287 287 287 287 288 288 288 288 288 288 288 288 288 289 289 289 289 289 290 290 290 290 290 290 290 290 290 290 290 290 290 291 291 291 291 291 290 290 290 290 290 290 290
300 300 299 299 298 297 296 295 294 294 294 294 294 294 295 295 295 296 296 296 296 296 295 295 294 293 293 292 292 292 291 291 291 290 290 290 290 289 289 289 288 288 288 287 287 287 287 288 288 288 288 288 288 289 289 289 289 289 289 289 289 289 290 290 290 290 290 290 290 290 290 290 290 290 290 291 291 291 291 291 290 290 290 290 290 290
299 299 298 297 296 295 293 292 292 291 291 291 292 292 292 293 293 294 294 294 294 294 293 293 292 292 291 291 291 291 290 290 290 290 289 289 289 289 289 288 288 288 287 287 287 287 288 288 288 288 288 288 289 289 289 289 289 289 289 289 289 289 290 290 290 290 290 290 290 290 290 290 290 291 291 291 291 291 291 291 291 291 290 290 290 290
298 297 296 295 294 293 291 291 290 290 290 290 290 290 291 291 292 292 292 292 292 292 292 291 291 291 290 290 290 290 289 289 289 289 289 289 288 288 288 288 288 288 288 288 288 288 288 288 288 288 288 288 289 289 289 289 289 289 289 289 289 289 289 290 290 290 290 290 290 290 290 290 291 291 291 291 291 291 291 291 291 291 290 290 290 290
296 295 294 293 292 291 290 289 289 289 289 289 289 290 290 290 290 290 291 291 291 291 290 290 290 290 290 290 290 289 289 289 289 289 288 288 288 288 288 288 288 288 288 288 288 288 288 288 288 288 288 288 289 289 288 289 289 289 289 289 289 289 289 289 290 290 290 290 290 290 290 290 290 290 290 291 290 290 290 290 290 290 290 290 290 290
295 293 292 291 290 290 289 289 289 289 289 289 289 289 289 289 289 289 289 290 289 289 289 289 289 289 289 289 289 289 289 289 289 288 288 288 288 288 288 288 288 288 288 288 288 288 288 288 288 288 288 288 289 289 289 288 289 289 289 289 289 289 289 289 289 289 289 290 290 290 290 290 290 290 290 290 290 290 290 290 290 290 290 290 290 290
293 292 290 290 289 289 289 289 289 288 289 289 289 289 289 289 289 289 289 289 289 289 289 288 288 288 288 288 288 288 288 288 288 288 288 288 288 288 288 288 288 288 288 288 288 288 288 288 288 288 288 288 289 289 289 288 288 289 289 289 289 289 289 289 289 289 289 289 289 289 290 290 290 290 290 290 290 290 290 290 290 290 290 290 290 290
291 290 289 289 289 289 289 288 288 288 288 288 288 289 289 289 289 289 289 288 288 288 288 288 288 288 288 288 288 288 288 288 288 288 287 287 287 288 288 288 288 288 288 288 288 288 288 288 288 288 288 288 289 289 288 288 288 288 288 288 288 288 289 289 289 289 289 289 289 289 289 289 290 290 290 290 290 290 290 290 290 290 290 290 290 290
290 289 289 289 289 288 288 288 288 288 288 288 288 288 288 288 288 288 288 288 288 288 288 288 288 288 288 288 288 288 288 288 288 287 287 287 287 288 288 288 288 288 288 288 288 288 288 288 288 288 288 288 288 288 288 288 288 288 288 288 288 288 288 289 288 288 288 288 289 289 289 289 289 289 290 290 290 290 290 290 290 290 290 290 290 290
289 289 289 288 288 288 288 288 288 288 288 288 288 288 288 288 288 288 288 288 288 288 288 287 287 287 287 287 287 288 287 287 287 287 287 287 287 287 288 288 288 288 288 288 288 288 288 288 288 288 288 288 288 288 288 288 288 288 288 288 288 288 289 289 289 289 288 288 289 289 289 289 289 289 289 289 290 290 290 290 290 290 290 290 290 290
289 288 288 288 288 288 288 288 288 288 288 288 288 288 288 288 288 288 288 288 287 287 287 287 287 287 287 287 287 287 287 287 287 287 287 287 287 288 288 288 288 288 288 288 288 288 288 288 288 288 288 288 288 288 288 288 288 288 288 288 288 288 288 289 289 289 289 289 289 289 289 289 289 289 289 289 289 289 289 289 289 289 289 289 289 289
288 288 288 288 288 288 288 288 288 288 288 288 288 288 288 288 288 288 288 287 287 287 287 287 287 287 287 287 287 287 287 287 287 287 287 287 288 288 288 288 288 288 288 288 288 288 288 288 288 288 288 288 288 288 288 288 288 288 288 288 288 288 288 289 289 289 289 289 289 289 289 289 289 289 289 289 289 289 289 289 289 289 289 289 289 289
288 288 288 288 287 287 288 288 288 288 288 288 288 288 287 287 287 287 287 287 287 287 287 287 287 287 287 287 287 287 287 287 287 287 287 287 288 288 288 288 288 288 288 288 288 288 288 288 288 288 288 288 288 288 288 288 288 288 288 288 288 288 288 288 289 289 289 289 289 289 289 289 288 288 288 289 289 289 289 289 289 289 289 289 289 289
288 288 288 287 287 287 287 287 287 287 287 287 287 287 287 287 287 287 287 287 287 287 287 287 287 287 287 287 287 287 287 287 287 287 287 287 288 288 288 288 288 288 288 288 288 288 288 288 288 288 288 289 289 289 288 288 288 288 288 289 288 288 288 288 289 289 289 289 289 289 289 288 288 288 288 288 288 288 288 288 288 288 288 288 288 288
288 288 288 287 287 287 287 287 287 287 287 287 287 287 287 287 287 287 287 287 286 286 286 286 287 287 287 287 287 287 287 287 287 287 287 288 288 288 288 288 288 288 288 288 288 288 288 288 288 288 288 289 289 289 289 289 289 289 289 289 289 288 288 288 288 289 289 289 289 289 288 288 288 288 288 288 288 288 288 288 288 288 288 288 288 288
288 287 287 287 287 287 287 287 287 287 287 287 287 286 286 286 286 286 286 286 286 286 286 286 286 286 287 287 287 287 287 287 287 288 288 288 288 288 288 288 288 288 288 288 288 288 288 289 289 289 289 289 290 290 290 290 290 290 290 290 289 289 289 289 289 289 289 289 289 288 288 288 288 288 288 288 288 288 288 288 288 288 288 288 288 288
287 287 287 287 287 287 287 287 287 286 286 286 286 286 286 286 286 286 286 286 286 286 286 286 286 286 286 287 287 287 287 288 288 288 288 288 288 288 288 288 288 288 288 288 289 289 289 290 290 290 290 290 291 291 291 291 291 291 291 291 290 290 290 290 290 290 290 289 289 289 288 288 288 288 288 288 288 288 288 288 288 288 288 288 288 288
Wind_Speed
22 23 23 22 22 21 21 20 20 19 18 18 17 17 17 17 15 14 14 14 15 15 15 15 15 15 14 15 15 15 16 16 17 17 17 16 15 14 13 12 12 13 13 14 14 14 14 13 13 13 14 15 16 17 18 19 19 20 21 21 21 20 19 19 18 18 18 18 18 18 19 19 19 18 18 18 17 17 16 14 12 10 9 8 8 7
23 23 22 22 21 20 20 20 20 19 18 17 17 17 17 16 15 14 14 15 15 15 15 15 15 15 14 15 15 15 16 16 17 17 17 16 16 15 13 13 12 13 13 14 14 14 13 13 13 13 13 14 14 15 16 16 17 17 17 17 17 17 17 17 17 17 18 18 19 19 18 18 18 18 18 18 17 16 15 13 11 9 8 7 7 6
23 22 22 21 20 19 20 21 20 19 18 17 17 17 17 17 15 15 14 15 15 15 15 15 15 15 14 15 15 15 16 17 17 17 17 17 16 15 14 13 13 13 14 14 14 14 13 12 12 12 13 13 13 14 14 15 15 15 15 15 15 16 16 17 18 18 19 19 19 19 18 18 18 18 18 18 17 15 13 11 9 8 7 6 6 6
22 22 21 21 20 20 20 21 21 19 18 17 17 18 18 16 15 14 14 14 14 15 15 15 15 15 15 15 15 16 16 17 17 18 18 17 17 15 14 13 13 13 14 14 14 13 12 12 12 12 12 13 13 14 14 14 15 15 15 15 16 16 17 18 18 19 19 19 19 18 18 17 17 17 17 17 16 14 12 9 8 6 6 5 5 5
23 22 22 21 20 21 21 21 20 19 18 17 17 18 17 15 14 14 14 14 14 14 14 15 15 15 15 15 16 16 17 17 18 18 18 18 17 16 15 13 13 13 14 14 13 13 12 12 12 12 13 13 13 14 14 15 15 15 16 16 17 17 18 18 19 19 19 19 19 18 18 17 16 16 16 15 14 12 10 8 6 5 5 5 5 5
23 23 22 22 22 22 22 21 20 19 18 18 18 17 16 15 14 14 14 15 15 14 14 15 15 15 15 16 16 17 18 18 18 18 18 18 17 16 15 14 13 14 14 13 13 12 12 12 12 12 13 13 14 14 15 15 16 16 16 17 17 18 18 19 19 19 19 19 18 17 17 16 15 15 14 13 12 10 9 7 6 5 4 4 4 4
24 24 23 23 23 23 22 21 20 19 19 19 19 18 16 15 15 15 15 15 15 15 15 15 15 16 16 17 17 18 18 19 19 19 19 18 17 16 15 14 14 14 14 13 12 12 12 12 12 13 13 14 14 15 15 16 16 16 17 17 17 18 18 18 18 18 18 17 17 16 15 15 14 13 12 11 10 9 8 6 5 5 4 4 4 4
25 25 24 24 24 23 22 21 21 20 20 20 19 18 17 17 16 15 15 15 15 16 16 16 16 16 17 17 18 19 19 19 19 19 19 19 18 16 15 14 14 14 13 13 12 11 11 12 12 13 13 14 15 15 16 16 16 16 16 16 16 17 17 17 17 17 16 15 15 14 13 13 12 11 10 9 8 8 7 6 5 4 4 4 4 4
25 25 25 25 25 24 23 22 21 21 20 20 19 18 17 17 17 16 16 16 16 17 17 17 17 17 17 18 19 20 20 20 20 20 20 19 18 16 15 14 14 13 13 12 12 11 11 12 12 13 14 14 15 15 15 15 15 14 14 14 14 15 15 15 15 14 14 13 12 12 11 11 10 9 9 8 7 7 6 6 5 4 4 4 4 4
25 25 25 26 26 25 23 23 22 22 21 20 19 19 18 17 17 17 17 17 17 18 18 18 18 18 18 18 19 20 21 21 21 21 20 19 18 16 15 14 14 13 13 12 12 11 12 12 13 13 14 14 14 14 14 14 13 13 12 12 12 13 13 12 12 12 11 11 10 10 10 9 9 8 7 7 6 6 6 5 5 5 5 4 4 4
25 26 26 26 26 25 24 23 22 22 21 20 19 19 19 18 18 17 17 18 18 19 19 19 19 19 19 20 20 21 22 22 21 21 20 18 17 16 15 15 14 14 13 12 12 12 12 13 13 13 14 14 13 13 13 12 12 11 11 11 11 11 10 10 10 10 9 9 9 9 8 8 8 7 7 6 6 6 6 5 5 5 5 5 5 4
26 26 26 26 26 25 24 23 23 22 21 20 20 19 19 19 19 19 18 19 19 20 20 20 19 20 20 21 22 22 22 22 21 20 19 18 17 16 16 15 15 14 14 13 12 12 13 13 13 13 13 13 12 12 11 11 10 10 10 9 9 9 9 9 8 8 8 8 8 8 8 7 7 7 6 6 6 6 6 5 5 5 5 5 5 5
25 26 25 25 25 25 24 24 23 23 22 22 21 21 20 20 20 19 19 19 20 21 21 20 20 20 21 22 23 23 23 22 21 20 19 18 18 17 16 16 15 15 14 13 13 13 13 13 13 13 12 12 11 11 10 10 9 9 9 9 8 8 8 7 7 7 7 7 7 7 7 7 7 6 6 6 6 6 6 6 5 5 5 5 5 5
25 25 25 25 25 25 25 25 24 24 23 23 22 21 21 20 20 20 20 20 21 21 21 20 20 21 22 22 23 23 22 21 21 20 20 19 18 17 17 16 16 15 14 13 13 13 13 13 13 12 12 11 10 10 9 9 9 9 8 8 8 7 7 7 7 7 7 7 7 7 7 6 6 6 6 6 6 6 6 6 5 5 5 5 5 6
25 25 25 26 26 27 26 26 25 25 24 23 22 21 21 21 21 21 21 21 21 21 21 20 21 21 22 23 23 22 22 21 21 20 20 20 19 18 17 16 16 15 14 13 13 13 13 13 13 12 11 10 9 9 9 9 8 8 8 8 7 7 6 6 6 6 6 6 6 6 6 6 6 6 6 6 6 6 6 6 5 5 5 5 5 6
26 26 27 27 27 28 28 27 26 25 24 23 22 22 22 22 22 21 21 21 21 20 20 21 21 22 23 24 24 23 22 21 20 20 20 20 19 18 17 16 16 15 15 14 13 13 13 13 13 12 11 10 9 9 9 8 8 8 8 7 7 7 6 6 6 6 6 6 6 6 6 6 6 6 6 6 6 6 6 5 5 5 5 5 5 5
27 27 28 28 28 28 28 28 26 25 24 23 23 23 22 22 22 21 21 21 20 20 20 21 22 23 24 25 25 25 23 22 21 21 20 20 19 18 17 16 16 16 15 14 14 13 13 13 12 11 10 9 9 9 8 8 8 8 8 7 7 7 6 6 6 6 6 6 6 6 6 6 6 6 6 6 6 5 5 5 5 5 5 5 5 5
28 28 28 28 28 28 28 28 27 25 24 24 23 23 22 22 22 22 22 21 21 21 21 21 22 23 24 25 26 26 24 22 21 21 21 20 19 17 16 16 16 16 15 15 14 14 14 13 13 11 10 10 9 9 8 8 8 8 8 7 7 7 7 7 6 6 6 6 6 6 6 6 6 6 6 6 5 5 5 5 5 5 5 5 5 5
28 29 28 28 27 27 27 27 27 26 25 24 23 22 22 23 23 23 23 23 22 22 21 21 22 23 23 24 25 25 23 21 21 21 21 20 19 17 16 16 16 16 16 15 14 14 14 13 13 12 11 10 9 9 8 8 8 8 8 7 7 7 7 7 7 7 6 6 6 6 6 6 6 6 5 5 5 5 5 5 5 5 5 5 5 5
27 28 28 27 25 25 25 26 27 26 25 23 22 21 22 22 23 24 24 24 23 22 22 22 22 23 23 25 24 23 21 20 20 21 21 20 19 16 16 16 16 16 16 15 14 14 14 14 13 12 11 10 10 9 9 8 8 8 8 8 7 7 7 7 7 7 6 6 6 6 6 6 5 5 5 5 5 5 5 5 5 5 5 5 5 5
26 26 25 24 23 22 23 25 26 25 24 22 20 20 20 21 22 24 25 25 24 24 23 22 22 23 24 25 24 21 19 19 19 21 21 20 18 16 15 15 16 16 16 16 14 14 14 14 13 12 11 10 10 9 9 9 8 8 8 8 7 7 7 7 7 7 6 6 6 6 6 6 5 5 5 5 5 5 5 5 5 5 5 5 5 5
24 24 23 22 21 21 22 23 24 24 22 20 19 18 19 20 21 23 24 24 24 24 24 23 24 25 26 25 22 19 17 17 18 19 20 21 19 16 15 15 16 16 17 16 15 14 14 14 13 12 11 11 10 10 9 9 9 8 8 8 8 7 7 7 7 7 6 6 6 6 6 6 5 5 5 5 5 5 5 5 5 5 5 5 5 5
22 22 21 21 21 21 22 23 24 23 21 19 18 17 17 18 19 20 22 23 23 24 24 24 25 25 25 23 21 19 17 17 17 18 19 21 20 17 15 15 16 17 17 16 14 14 14 14 13 12 11 11 10 10 9 9 9 9 8 8 8 8 7 7 7 7 6 6 6 6 6 6 5 5 5 5 5 5 5 5 5 5 5 5 5 5
20 21 21 22 22 22 23 23 22 21 19 18 17 16 17 17 18 18 20 21 22 23 23 23 23 23 23 22 21 19 18 17 17 18 19 20 19 17 15 15 16 17 17 16 14 14 14 14 13 12 12 11 11 10 10 9 9 9 8 8 8 8 7 7 7 7 7 6 6 6 6 6 5 5 5 5 5 5 5 5 5 5 5 5 5 5
19 21 22 23 22 21 21 21 20 19 18 17 17 17 17 18 18 19 20 21 22 22 22 22 22 23 23 22 21 20 19 18 18 19 19 20 19 17 15 15 16 17 17 15 14 14 14 14 13 13 12 11 11 10 10 10 9 9 9 8 8 8 8 7 7 7 7 7 7 6 6 6 6 5 5 5 5 5 5 5 5 5 5 5 5 5
18 19 20 21 20 19 19 18 18 17 17 17 17 17 17 18 18 19 20 21 22 22 21 21 22 23 23 22 21 20 19 19 19 20 20 20 19 17 15 16 16 17 17 15 14 14 14 14 13 13 12 11 11 10 10 10 9 9 9 9 8 8 8 8 7 7 7 7 7 6 6 6 6 6 5 5 5 5 5 5 5 5 5 5 5 5
17 18 18 18 18 18 18 17 17 17 16 16 16 17 17 17 18 19 20 21 21 21 21 22 22 23 22 22 21 20 20 20 20 20 20 20 18 17 16 16 17 17 16 15 14 14 14 14 13 13 12 11 11 10 10 10 10 9 9 9 9 8 8 8 8 8 7 7 7 7 6 6 6 6 6 5 5 5 5 5 5 5 5 5 5 6
17 17 17 17 17 17 17 17 16 16 16 16 16 16 16 17 17 19 20 21 20 20 21 21 22 22 22 21 21 20 20 20 20 21 20 20 19 18 17 17 17 17 16 15 15 15 15 14 14 13 12 11 11 10 10 10 10 10 9 9 9 9 8 8 8 8 8 7 7 7 7 6 6 6 6 6 6 5 5 5 5 5 5 6 6 6
16 17 17 17 16 16 16 16 16 15 15 15 15 15 15 16 17 18 19 19 19 19 20 21 21 21 21 20 20 20 20 21 21 21 20 20 19 18 17 17 17 17 16 15 15 15 15 15 14 13 12 11 11 11 11 11 10 10 10 10 9 9 9 9 8 8 8 8 7 7 7 7 7 6 6 6 6 6 6 6 6 6 6 6 6 6
15 16 16 16 16 16 15 15 15 15 15 15 15 15 15 15 16 17 18 17 18 18 19 20 20 20 20 19 19 20 21 21 21 21 20 20 20 19 17 17 17 17 16 15 15 15 15 15 14 13 12 12 11 11 11 11 11 11 10 10 10 10 10 9 9 9 8 8 8 8 8 7 7 7 7 7 6 6 6 6 6 7 7 7 7 7
15 15 15 15 15 15 15 15 14 14 15 15 14 14 14 15 16 17 17 16 17 17 18 19 20 19 19 19 19 20 22 21 21 21 21 21 20 19 17 17 17 17 16 16 15 16 16 16 15 13 13 12 12 12 11 11 11 11 11 11 10 10 10 10 10 9 9 9 9 8 8 8 8 7 7 7 7 7 7 7 7 7 7 7 7 7
14 14 14 14 14 14 14 14 14 14 14 14 14 14 14 15 15 15 16 16 16 17 18 19 18 18 17 17 18 19 20 20 20 20 20 21 20 19 17 17 17 17 16 16 16 16 15 16 15 14 13 13 12 12 12 11 11 11 11 11 11 11 11 10 10 10 10 9 9 9 9 9 8 8 8 8 7 7 7 8 8 8 8 8 8 8
14 14 14 14 14 14 14 14 14 14 14 14 14 14 15 15 15 15 15 16 17 18 19 19 18 17 17 17 18 18 18 18 18 19 20 20 20 18 17 17 17 16 16 16 16 16 15 16 15 13 13 13 12 12 12 12 11 11 11 11 11 11 11 11 11 10 10 10 10 10 9 9 9 9 8 8 8 8 8 8 8 8 8 8 8 8
14 14 14 14 14 14 14 14 14 14 15 15 15 15 15 15 15 16 16 17 18 18 19 18 18 17 17 18 18 18 17 16 17 19 20 20 19 18 17 17 17 17 17 17 17 17 17 15 13 12 13 13 12 12 12 12 12 12 12 12 12 11 11 11 11 11 11 10 10 10 10 10 9 9 9 9 8 8 8 8 8 8 8 8 8 8
15 15 15 15 15 15 15 15 15 15 16 16 16 16 16 16 16 16 17 17 18 18 18 18 18 18 18 19 19 18 17 16 17 19 20 19 19 18 17 17 17 17 17 17 17 17 17 15 13 13 12 12 13 13 12 12 12 12 12 12 12 12 12 11 11 11 11 11 11 11 10 10 10 9 9 9 8 8 8 8 8 8 8 9 9 9
15 15 15 15 15 16 16 16 16 16 17 17 17 17 17 17 17 17 17 18 18 18 18 18 18 18 18 18 18 17 16 15 16 18 19 19 18 17 17 17 17 17 17 17 17 17 16 15 14 13 13 13 13 13 13 13 13 13 13 13 12 12 12 12 11 11 11 11 11 11 11 10 10 10 9 9 9 9 9 9 9 9 9 9 9 9
15 16 16 16 16 16 17 17 17 17 18 18 18 18 18 17 18 18 18 18 18 19 19 18 18 18 18 18 17 15 15 15 17 18 18 18 17 17 17 17 16 16 16 16 16 16 15 15 14 14 13 13 13 13 13 13 13 13 13 13 13 13 12 12 12 12 12 11 11 11 11 11 10 10 10 10 10 9 9 9 9 9 9 9 10 10
16 16 16 16 17 17 17 17 18 18 18 18 18 18 18 18 18 18 19 19 19 19 19 19 19 19 18 18 17 16 15 16 17 18 18 17 17 17 16 16 16 16 16 16 15 15 15 14 14 14 14 14 13 13 13 13 13 13 13 13 13 13 13 13 12 12 12 12 12 12 11 11 11 11 10 10 10 10 10 10 10 10 10 10 10 10
17 17 17 17 17 17 18 18 18 18 17 17 17 17 18 18 18 19 19 19 19 20 19 19 19 19 18 18 17 17 17 17 18 18 18 17 17 16 16 16 16 16 16 15 15 15 14 14 14 14 14 14 14 13 13 13 14 14 13 13 13 13 13 13 13 13 13 13 12 12 12 12 12 11 11 11 11 11 11 10 10 10 10 10 10 11
17 17 17 17 18 18 19 18 17 17 16 16 17 17 17 18 18 18 19 19 19 19 19 19 19 18 18 17 17 17 17 18 18 18 17 17 16 16 16 15 15 15 15 15 15 15 15 14 14 14 14 14 14 14 13 14 14 14 14 13 13 13 13 13 13 13 13 13 13 13 12 12 12 12 12 12 12 11 11 11 11 11 11 11 11 11
17 17 18 18 19 19 18 17 16 15 16 16 17 17 18 18 18 18 18 18 19 19 19 18 18 18 17 17 17 17 17 18 17 17 17 17 16 16 15 15 15 15 15 15 15 15 15 15 15 15 15 15 14 14 14 14 14 14 13 13 13 13 13 13 13 13 13 13 13 13 13 13 12 12 12 12 12 12 12 11 11 11 11 11 11 11
18 18 19 19 19 18 17 15 15 15 16 17 17 18 18 18 18 18 18 18 18 18 18 18 17 17 17 17 17 18 18 18 18 17 17 17 16 16 15 15 15 15 15 15 15 15 15 15 15 15 15 14 14 14 13 13 13 13 12 12 13 13 13 13 13 13 13 13 13 13 13 13 13 13 13 13 12 12 12 12 12 12 12 12 12 12
18 19 19 18 17 16 15 15 15 16 17 17 18 18 18 18 18 18 18 18 18 18 18 18 18 17 17 18 18 18 18 18 18 17 17 17 16 16 15 15 15 15 15 15 15 15 15 15 15 14 14 14 13 13 13 12 12 12 12 12 12 12 12 12 12 12 13 13 13 13 13 13 13 13 13 13 13 13 13 13 13 13 13 13 13 13
19 19 19 17 16 15 15 16 16 17 17 18 18 18 18 18 18 18 18 18 18 18 18 18 18 18 18 18 18 18 18 18 17 17 17 16 16 16 16 15 15 15 15 15 15 15 15 15 14 14 14 13 13 12 12 11 11 11 11 11 11 12 12 12 12 12 12 13 13 13 13 14 14 14 14 14 13 13 13 13 13 13 13 13 13 13
19 19 17 16 15 16 16 17 17 17 17 18 18 18 18 18 18 18 18 18 18 18 18 18 18 18 18 19 19 19 18 18 17 17 17 16 16 16 16 16 16 16 16 15 15 15 15 15 14 14 13 12 12 12 11 11 11 10 11 11 11 11 12 12 12 12 12 13 13 14 14 14 14 14 14 14 14 14 14 14 14 14 14 14 14 14
19 18 16 16 16 17 17 18 18 18 18 18 18 18 18 18 18 18 18 18 18 18 18 18 18 18 19 19 19 18 18 18 17 17 17 17 16 16 16 16 16 16 16 15 15 14 14 14 14 13 12 12 11 11 11 11 11 11 11 11 11 11 12 13 12 12 12 13 13 14 14 14 14 14 14 14 14 14 14 14 14 14 14 14 14 14
18 17 17 17 17 18 18 18 18 18 18 18 18 18 18 18 18 18 18 18 18 18 18 19 19 19 19 18 18 18 18 18 17 17 17 17 17 17 16 16 16 15 15 15 14 14 13 13 13 12 12 11 11 10 10 10 11 11 11 11 11 12 12 12 13 13 13 13 14 14 14 14 14 14 14 15 15 14 14 14 14 14 14 14 14 15
18 17 17 18 18 19 19 19 18 18 18 18 18 18 18 18 19 19 19 19 19 19 19 19 19 19 19 18 18 17 17 17 17 17 17 17 17 17 16 16 15 15 14 14 14 13 13 12 12 11 11 10 10 10 10 10 11 11 11 11 12 12 12 13 13 13 13 14 14 14 14 14 14 14 15 15 15 15 14 14 14 14 14 14 14 15
18 18 18 18 19 19 19 19 19 19 19 19 19 19 19 19 19 19 19 19 19 19 19 19 19 19 19 18 18 18 18 18 18 18 17 17 17 17 16 16 15 15 14 14 14 13 12 12 11 10 10 10 9 9 10 10 11 11 11 12 12 12 12 13 13 13 14 14 14 14 14 14 14 14 15 15 15 15 15 15 15 14 14 14 15 15
18 19 19 19 19 20 19 19 19 19 19 19 19 19 20 20 20 20 20 20 20 20 20 20 20 19 19 18 18 18 18 18 18 18 18 17 17 17 16 16 16 15 15 14 14 13 12 11 11 10 10 10 10 10 10 11 11 12 12 12 12 12 12 13 13 14 14 14 14 14 14 14 14 14 15 15 15 15 15 15 15 15 15 15 15 15
19 19 19 20 20 20 20 19 19 20 20 20 20 20 21 21 21 21 21 21 21 21 20 20 20 19 19 18 18 18 18 18 18 18 18 17 17 17 16 16 16 15 15 14 13 13 12 11 10 10 10 10 11 11 11 11 12 12 12 12 12 12 12 13 13 14 14 14 13 14 14 14 14 14 14 15 15 16 16 16 16 16 16 16 15 15
Wind_Direction
262 265 266 267 267 267 269 270 271 271 273 274 274 272 270 269 269 270 270 268 266 264 262 260 259 258 257 258 259 262 265 268 270 271 271 272 274 276 279 282 285 288 290 291 291 288 284 279 272 265 260 256 254 253 252 252 253 254 256 259 263 267 271 275 277 279 281 282 285 289 294 297 298 299 300 301 302 302 302 302 300 297 293 289 284 278
261 263 265 265 265 265 265 267 268 269 271 272 271 269 268 267 266 265 264 264 262 261 260 257 256 254 254 254 256 259 261 264 265 268 269 271 274 276 279 282 286 289 292 293 291 288 283 277 270 263 257 254 253 252 252 253 254 255 258 261 265 269 273 276 278 280 281 283 286 289 292 294 295 295 296 297 298 299 299 300 298 296 292 288 283 278
260 261 263 264 264 262 261 263 266 268 269 270 268 266 266 265 264 262 260 261 260 259 257 255 253 252 251 252 254 256 258 261 263 266 269 271 273 276 278 283 287 291 293 293 291 287 281 273 266 259 255 252 250 250 251 252 254 257 260 264 268 272 275 278 280 281 282 284 286 288 289 290 290 291 292 293 294 296 297 297 296 293 290 286 283 278
261 260 262 263 262 260 260 263 266 268 269 269 267 266 266 265 263 260 258 258 258 257 253 252 251 251 250 251 253 255 257 260 262 266 268 271 274 276 278 283 289 292 293 292 289 284 277 269 262 256 252 250 250 250 251 254 256 260 264 267 270 273 275 276 278 279 280 281 283 284 284 284 286 287 288 290 292 293 294 294 293 290 288 285 282 278
263 261 261 261 260 259 261 264 267 269 269 268 266 265 265 263 259 255 254 255 256 255 253 250 249 249 250 251 253 255 257 259 262 265 268 271 274 276 279 284 289 291 291 290 286 281 273 265 258 253 250 249 249 251 253 256 260 263 266 269 271 272 273 274 274 275 276 277 278 278 279 280 281 283 285 287 289 291 291 291 290 288 286 282 278 273
264 263 262 261 260 260 263 266 267 268 268 265 264 263 261 257 252 248 248 250 252 253 253 251 249 248 249 251 252 254 256 259 261 264 267 270 272 275 279 284 288 289 289 287 283 277 270 262 257 253 251 250 251 254 257 260 263 266 268 270 271 271 271 271 271 271 271 271 272 273 274 275 277 279 280 282 285 287 288 290 290 287 284 278 273 268
263 264 264 263 262 263 264 266 267 266 265 263 262 260 256 252 246 242 242 243 246 249 252 252 250 247 247 248 250 252 254 257 260 263 265 268 271 274 279 284 287 287 286 284 279 273 267 262 257 255 254 255 257 260 262 264 267 268 269 269 269 269 268 267 266 266 266 266 267 268 270 271 272 273 274 277 279 281 284 286 286 284 279 272 267 262
262 264 264 263 263 264 265 265 264 263 262 262 260 257 252 248 245 241 239 238 240 243 246 248 248 246 244 245 248 251 253 256 259 261 264 267 270 274 279 283 285 285 284 281 276 270 265 261 259 259 261 263 266 268 269 270 271 270 270 268 267 266 264 263 262 262 262 262 262 263 265 266 267 268 269 270 272 275 277 279 279 276 270 264 259 255
260 262 263 264 264 264 263 263 261 260 259 259 257 254 250 246 244 242 239 238 237 238 239 240 241 241 241 242 245 248 251 254 257 260 263 267 270 275 280 283 284 283 281 277 273 268 264 262 263 265 268 271 273 275 275 275 274 272 270 267 265 262 260 259 257 257 256 257 257 258 259 260 261 262 263 264 265 267 268 269 268 264 259 254 248 244
261 260 260 262 264 264 262 261 259 258 258 257 255 252 247 244 242 241 240 239 238 238 237 237 237 237 238 239 242 246 249 252 255 259 262 267 272 277 281 283 282 280 278 274 270 266 264 264 267 270 274 276 278 278 278 277 274 272 268 264 261 258 255 254 252 251 251 251 252 253 254 255 256 257 257 257 258 258 258 258 255 252 248 243 239 232
258 258 257 259 261 262 261 258 257 257 256 254 252 250 247 243 241 239 238 237 237 238 238 238 237 236 236 236 239 243 248 252 256 260 264 268 272 277 279 280 279 277 274 271 267 265 265 268 271 275 277 279 280 279 277 275 273 269 265 260 256 253 251 249 248 247 246 246 247 247 248 249 251 251 250 250 249 248 247 245 243 240 237 234 231 223
255 256 256 257 258 258 257 255 255 254 252 250 249 247 244 243 241 238 235 236 236 236 237 238 239 238 237 236 238 242 248 252 256 262 267 270 273 275 276 276 275 273 271 268 265 265 267 271 274 278 280 280 279 277 275 273 270 266 261 257 253 250 248 246 244 243 243 242 242 242 243 244 244 243 242 241 239 238 237 235 232 229 228 226 223 214
256 256 256 256 256 254 252 251 250 250 250 249 249 248 246 245 243 239 236 235 236 236 236 238 238 239 240 240 241 243 248 252 257 261 265 268 270 272 273 273 272 270 267 264 263 265 269 273 277 280 280 279 277 274 271 269 266 262 258 255 252 248 246 243 242 240 238 237 237 236 237 236 236 235 233 231 229 228 228 226 224 221 219 218 216 208
255 254 253 252 252 252 250 249 248 248 250 251 252 252 251 248 245 241 237 235 234 235 236 236 237 238 240 242 244 246 248 252 255 258 260 262 265 267 268 268 267 265 263 261 261 265 270 275 278 280 279 277 274 271 268 265 262 259 256 254 251 247 244 241 238 236 234 232 230 230 229 228 228 226 224 222 220 220 219 218 215 213 211 210 210 205
253 252 250 249 249 250 251 251 250 251 253 254 254 253 250 248 246 243 239 236 234 234 234 234 235 236 238 240 244 247 248 250 253 256 257 259 260 262 263 263 262 261 259 258 260 265 271 275 278 279 277 274 271 267 264 261 259 256 254 252 249 245 241 237 233 230 228 225 224 222 221 220 218 217 214 212 211 212 212 210 207 205 203 203 204 203
253 252 251 251 252 253 254 254 254 254 255 254 253 250 248 247 246 244 242 240 238 236 234 233 233 234 235 239 242 245 245 247 250 252 254 256 257 258 258 258 258 257 256 257 260 266 271 275 276 276 274 272 268 264 261 258 255 253 251 249 245 242 237 232 228 225 222 219 217 215 214 212 209 207 205 203 203 204 204 203 200 197 195 197 199 202
253 253 253 254 254 255 256 256 256 255 255 253 251 250 248 248 247 246 245 243 242 239 237 236 235 234 233 236 239 241 243 243 246 249 251 253 253 254 254 253 253 253 254 256 260 265 271 274 275 273 271 269 265 261 258 255 252 249 247 244 241 237 232 227 223 219 216 212 210 208 206 203 201 199 197 196 196 197 198 197 195 193 192 192 196 200
253 254 255 255 256 256 258 258 257 255 254 252 251 250 248 247 246 245 244 244 243 241 240 241 240 240 239 236 237 240 242 241 243 247 250 251 251 251 250 249 249 250 251 254 259 264 269 271 271 271 268 265 262 258 255 252 248 246 243 240 235 231 226 221 218 213 211 207 204 202 200 197 195 193 191 191 191 193 195 196 196 194 193 193 196 200
254 256 256 256 256 256 257 258 258 256 254 253 251 249 246 244 243 242 242 243 242 242 241 242 243 244 243 242 242 243 243 241 242 245 249 251 251 248 246 245 246 247 250 253 257 262 266 267 267 266 264 262 258 255 252 249 245 242 239 235 230 225 221 217 213 209 206 203 199 197 195 193 192 190 189 188 189 191 193 198 199 199 199 199 201 204
255 256 256 256 255 254 255 256 257 256 256 255 253 250 246 243 240 239 239 240 240 240 240 240 241 242 242 244 244 244 242 241 241 243 247 251 250 246 242 241 243 245 249 252 256 260 263 263 263 262 260 258 255 252 249 246 242 238 234 230 225 220 215 211 209 206 202 200 197 196 194 193 192 191 189 189 190 191 195 199 204 207 209 209 210 213
253 253 254 254 252 250 250 252 255 256 256 255 253 249 245 241 238 236 237 237 237 237 237 237 237 238 239 242 244 244 241 239 239 241 245 248 248 243 237 237 240 244 248 251 254 257 259 259 259 258 256 254 251 248 245 241 238 234 230 225 219 215 211 208 205 203 200 198 197 196 195 194 193 192 192 192 193 195 197 201 207 212 216 218 220 222
248 247 248 249 247 245 245 247 251 254 255 254 251 247 243 239 236 234 235 235 235 235 234 231 231 233 237 240 242 244 242 240 239 239 242 243 244 241 233 233 238 242 247 250 252 254 255 255 255 253 252 250 247 244 240 237 233 230 226 221 216 211 207 205 203 201 200 198 198 197 197 197 197 197 197 198 199 201 202 205 210 215 219 223 226 229
243 241 240 240 239 238 239 242 247 251 253 252 249 246 243 240 238 237 236 236 235 234 233 232 232 235 238 241 242 242 241 239 237 237 238 239 240 237 230 232 236 241 246 249 249 250 251 252 251 249 247 245 242 239 236 233 229 226 221 217 213 208 205 203 202 201 200 201 200 201 201 201 202 203 204 205 207 209 210 212 215 219 222 226 229 232
237 235 233 233 235 236 239 243 247 250 251 249 246 242 240 237 236 235 236 235 234 234 234 234 235 236 238 240 240 239 238 236 233 231 232 234 236 234 229 230 235 241 245 247 247 247 248 248 247 245 243 240 238 235 232 228 225 222 218 214 210 206 203 202 202 202 202 203 204 204 205 206 207 208 210 213 214 216 218 219 221 223 226 229 231 234
236 235 235 236 238 240 243 246 249 250 249 246 242 239 236 233 230 229 229 230 231 232 232 233 233 234 236 236 236 236 234 232 229 227 228 230 232 231 228 230 234 239 243 245 244 243 244 244 243 241 238 236 233 230 227 225 221 218 214 211 208 205 204 203 203 204 205 206 207 208 209 210 211 213 215 218 219 222 224 225 226 228 230 232 235 237
237 237 238 240 242 243 245 247 248 248 246 243 241 239 236 233 231 229 228 229 229 229 230 231 231 233 234 234 234 232 231 228 226 225 225 227 229 229 228 231 234 238 241 241 241 240 241 241 239 237 235 232 230 227 224 222 219 216 212 209 207 206 205 204 205 206 208 209 210 211 212 214 215 217 219 222 224 226 228 230 231 233 234 236 238 240
237 237 237 238 239 240 242 242 243 242 241 240 239 238 236 235 232 229 228 228 228 227 227 228 230 231 232 232 231 230 228 226 225 225 225 227 228 228 229 232 235 237 238 238 237 237 238 238 236 234 232 229 226 223 221 219 216 213 210 209 207 206 206 206 207 209 211 212 213 214 216 217 219 221 223 224 227 229 230 233 235 236 239 240 242 243
236 236 235 235 235 236 236 236 237 236 237 237 236 236 235 233 232 230 229 229 228 226 226 227 228 229 229 230 229 227 226 225 224 225 227 227 227 228 230 233 235 236 235 234 233 234 235 235 234 231 228 226 223 220 218 216 214 211 209 207 206 206 207 208 209 211 213 214 216 217 219 220 223 224 226 228 230 232 233 235 238 240 242 243 244 245
237 236 235 233 233 233 233 233 233 232 233 233 233 233 232 231 230 230 230 229 227 225 226 227 228 229 229 229 228 226 225 224 224 225 227 227 227 228 229 232 233 234 232 230 230 231 232 232 231 228 225 222 220 218 216 214 212 210 208 207 206 207 208 209 211 213 214 216 218 220 221 223 225 227 228 229 231 233 235 237 239 241 243 245 247 247
238 237 235 234 233 232 232 231 230 230 229 228 229 229 228 227 226 227 227 227 225 225 226 227 228 229 229 228 227 225 223 222 223 225 227 226 227 228 227 229 230 231 229 227 227 227 228 228 227 225 222 219 218 217 216 214 212 210 209 208 208 208 209 210 212 214 216 218 220 222 224 225 227 228 230 231 232 234 236 238 240 243 244 247 248 250
241 239 237 235 234 233 232 231 229 228 226 225 224 224 223 223 224 224 224 223 222 224 225 227 229 229 230 229 228 226 223 222 223 225 227 226 227 228 226 226 227 228 227 225 224 224 225 225 223 221 219 218 217 216 215 213 212 211 210 210 209 210 211 212 214 215 218 220 223 225 227 228 229 230 231 232 233 235 236 239 241 243 246 248 250 252
242 239 237 236 235 234 233 231 229 227 226 225 223 223 222 222 223 223 222 221 220 221 224 226 229 230 231 232 232 230 228 224 224 225 227 227 227 227 223 223 224 225 224 223 222 222 222 222 220 218 217 216 216 215 214 213 212 211 211 211 211 212 213 214 216 217 219 222 225 227 228 229 230 231 232 233 234 235 238 240 243 245 247 250 253 255
242 240 238 238 237 236 234 232 230 228 227 226 225 224 223 223 223 223 222 221 220 221 222 225 226 227 227 229 231 232 231 227 224 225 227 227 226 224 221 220 221 221 221 221 221 222 222 223 220 216 215 215 215 215 214 213 213 212 212 213 213 214 216 217 218 219 220 223 225 228 230 231 232 233 234 234 235 237 239 242 245 248 250 253 256 258
242 240 239 239 238 237 235 233 231 229 228 227 226 225 224 223 223 222 223 223 224 225 225 226 226 224 224 226 228 228 227 223 221 222 225 226 225 222 219 218 218 219 219 219 219 221 223 223 221 217 214 214 215 214 215 214 213 213 214 214 215 216 218 219 220 220 221 223 225 227 230 231 233 234 235 236 237 238 241 243 247 249 252 255 258 261
241 241 240 240 239 239 237 235 233 231 229 227 227 226 225 224 224 223 223 225 227 228 229 230 228 227 226 226 227 226 223 219 218 220 222 223 222 220 217 216 216 217 218 218 218 219 220 221 219 216 214 214 214 214 215 215 215 215 216 217 217 218 219 221 221 221 222 223 224 226 228 231 233 235 236 237 239 240 241 244 247 250 253 256 258 261
241 240 241 241 240 240 239 237 235 233 231 229 228 227 226 225 224 223 223 225 226 228 229 230 230 230 230 229 228 226 221 218 218 219 220 220 219 218 217 216 216 216 217 218 218 218 218 217 216 215 215 214 214 213 214 215 216 217 218 218 219 220 221 222 223 224 224 224 225 227 228 231 233 235 237 238 239 241 242 243 246 248 251 254 257 259
240 240 241 241 241 241 240 238 236 235 233 231 229 227 226 225 223 223 223 224 225 226 227 228 228 228 229 229 227 224 219 217 218 219 219 219 218 217 216 215 215 215 216 216 217 217 217 216 215 215 216 216 215 213 213 215 217 218 219 220 221 221 222 224 226 226 227 228 229 230 231 233 234 236 238 239 240 241 243 244 245 247 249 252 254 257
240 240 241 241 242 242 241 239 237 235 233 231 229 228 226 224 223 222 222 223 224 224 225 226 226 226 225 225 222 219 215 215 216 217 217 217 216 215 215 214 213 213 214 214 215 215 216 215 215 215 216 218 217 215 213 215 217 219 220 221 222 223 224 226 228 229 231 232 233 234 235 236 237 238 239 240 241 242 243 244 246 247 248 251 253 256
240 240 241 241 242 241 240 239 237 235 233 231 230 228 227 225 223 223 222 223 223 224 224 224 224 223 223 221 219 216 214 214 214 215 215 214 214 213 212 212 211 211 211 210 211 212 213 214 215 216 218 220 218 216 214 216 218 219 220 222 223 224 225 227 229 231 233 234 236 237 238 239 240 240 241 242 243 243 244 245 247 248 249 251 253 255
240 241 241 241 241 241 240 239 238 235 232 231 230 228 227 225 224 223 223 223 223 223 223 223 222 221 220 218 217 215 213 213 213 213 213 212 212 211 210 209 209 209 208 208 208 209 210 212 214 217 219 220 220 217 214 217 220 221 222 222 224 226 227 228 230 232 234 236 238 239 240 241 242 243 244 244 245 246 246 248 249 249 250 251 252 254
241 241 240 240 240 242 242 241 237 234 231 229 228 227 225 224 223 222 222 222 222 222 222 221 220 219 218 217 215 213 212 211 211 210 210 210 209 208 207 206 206 206 207 206 207 208 209 211 214 216 219 220 220 218 217 219 222 224 225 226 228 229 230 231 232 234 236 238 240 241 242 243 244 246 247 248 249 250 250 251 251 252 253 253 254 254
242 241 240 240 241 242 242 239 234 231 229 228 226 225 224 223 222 221 220 220 220 219 219 218 217 216 215 214 213 211 210 209 208 208 207 207 207 206 205 204 205 205 205 206 206 208 209 211 214 217 219 221 221 221 221 222 225 227 229 232 234 236 235 235 235 237 239 241 242 243 244 245 247 248 249 251 252 253 254 254 255 256 256 256 256 256
241 240 241 241 241 240 238 234 230 228 227 226 225 224 224 223 222 221 220 219 218 217 216 216 215 214 213 212 210 209 208 206 206 205 205 204 204 203 203 203 203 204 205 206 207 208 210 212 214 217 219 221 222 224 225 225 226 229 232 235 238 241 241 238 236 237 240 242 244 245 246 247 248 249 250 251 253 254 255 257 257 258 259 259 259 259
240 241 242 241 238 234 232 229 227 226 226 225 224 223 223 222 221 220 219 218 217 216 215 214 213 212 212 210 208 207 205 204 203 203 203 202 202 201 202 202 203 204 205 206 208 209 211 212 214 216 217 219 222 224 226 227 228 229 231 235 238 242 243 241 238 235 237 240 243 245 246 247 248 249 250 251 253 254 256 257 258 259 260 260 261 261
241 242 240 237 233 229 228 226 226 226 225 224 224 223 222 222 221 220 218 217 216 215 214 213 212 211 211 209 207 205 203 202 202 201 201 201 200 200 201 201 203 204 205 207 208 210 211 213 214 215 216 218 220 223 226 228 229 230 230 232 235 239 241 243 241 237 235 237 240 243 245 246 247 249 250 251 253 254 255 256 258 260 261 262 262 263
242 240 237 232 229 226 225 225 225 224 224 223 222 222 221 221 220 219 217 216 215 213 212 211 210 210 209 207 205 203 202 201 200 200 199 199 199 200 200 201 202 204 206 207 208 210 211 213 214 215 215 217 219 222 225 228 231 233 234 233 234 237 241 244 245 243 240 240 240 242 244 245 247 249 250 251 252 253 254 256 257 259 261 263 264 264
241 237 232 228 226 224 224 224 224 223 223 222 221 220 220 220 219 218 216 215 213 212 211 209 209 208 207 205 203 201 200 200 200 199 199 199 199 199 200 201 202 203 205 206 207 209 211 212 214 215 216 218 220 223 226 230 234 236 238 238 238 239 241 245 247 247 246 245 245 244 244 245 247 249 250 251 252 253 254 255 257 258 261 263 264 265
240 234 229 226 224 223 223 223 222 222 221 221 220 219 219 218 217 216 215 213 212 210 209 208 207 207 206 203 201 199 199 200 200 200 200 200 199 199 199 200 201 202 203 204 205 207 209 211 212 214 216 219 222 225 229 232 236 239 241 243 243 243 243 246 248 250 250 250 249 249 248 247 248 249 251 252 253 254 254 255 255 257 259 261 263 264
237 232 228 225 223 223 222 222 221 220 220 219 218 217 216 216 215 214 213 211 210 208 207 207 206 205 203 201 200 198 199 199 199 200 200 200 199 199 198 198 199 199 200 202 203 204 206 208 210 213 215 219 224 228 232 236 239 241 244 246 247 247 247 248 249 250 250 251 252 252 251 251 250 251 253 254 255 256 256 256 256 256 256 258 260 262
234 230 226 224 223 222 221 220 219 219 219 218 216 215 215 214 213 212 210 209 208 207 206 205 204 204 203 201 200 199 199 200 200 199 199 199 199 198 198 197 197 198 198 199 200 202 204 207 211 215 219 222 226 231 236 240 242 244 245 247 249 249 250 251 251 252 252 252 252 253 253 253 253 253 255 256 257 258 258 259 259 258 258 257 257 259
232 229 226 224 223 222 221 219 218 218 218 217 215 213 213 212 211 210 208 207 206 205 204 203 203 203 203 201 201 200 201 201 200 200 199 198 198 198 197 197 196 196 196 197 198 200 203 207 212 219 225 229 230 233 237 241 244 247 247 249 249 250 251 253 254 255 254 254 253 253 254 255 255 256 256 257 258 259 261 261 262 262 261 259 258 259